Location: Newark
(43.0000°N, 1.6781°W)
Time: 02:29:11
(UTC+00:00)

X-37B - Pass Details

Date: 08 December 2021
Orbit: 334 x 337 km, 45.0° (Epoch: 11 January)

Event Time Altitude Azimuth Distance (km) Brightness Sun altitude
Rises 17:31:23 0° 230° (SW) 2,094 5.9 -10.6°
Reaches altitude 10° 17:33:27 10° 221° (SW) 1,261 4.2 -10.9°
Maximum altitude 17:36:05 35° 153° (SSE) 562 1.3 -11.4°
Enters shadow 17:37:40 19° 97° (E) 888 1.9 -11.7°
